Satellite-Ground Cal/Val Region Overpasses Predictions

Prediction of Satellite NPP Overpassing Cal/Val Region: PacNW

Region Location: (Latitude: 10.00, Longitude: 139.50) to (Latitude: 22.70, Longitude: 165.60).

Table of predicted overpasses for the next 14.0 days since TLE Epoch: 2/24/2024
Interval Starting Time Starting Location Ending Time Ending Location
1 02/24/2024 03:24:13 ( 10.05, 148.74) 02/24/2024 03:27:48 ( 22.67, 145.74)
2 02/24/2024 15:56:06 ( 22.65, 145.98) 02/24/2024 15:59:41 ( 10.03, 142.98)
3 02/25/2024 03:05:10 ( 10.00, 153.52) 02/25/2024 03:08:46 ( 22.68, 150.50)
4 02/25/2024 15:37:04 ( 22.64, 150.74) 02/25/2024 15:40:39 ( 10.02, 147.74)
5 02/26/2024 02:46:08 ( 10.01, 158.28) 02/26/2024 02:49:44 ( 22.69, 155.26)
6 02/26/2024 15:18:00 ( 22.69, 155.51) 02/26/2024 15:21:36 ( 10.01, 152.50)
7 02/27/2024 02:27:05 ( 10.02, 163.04) 02/27/2024 02:30:40 ( 22.64, 160.03)
8 02/27/2024 14:58:58 ( 22.68, 160.27) 02/27/2024 15:02:34 ( 10.00, 157.26)
9 02/28/2024 02:10:43 ( 19.43, 165.59) 02/28/2024 02:11:38 ( 22.65, 164.79)
10 02/28/2024 03:49:33 ( 10.04, 142.42) 02/28/2024 03:53:02 ( 22.31, 139.50)
11 02/28/2024 14:39:55 ( 22.67, 165.03) 02/28/2024 14:43:30 ( 10.05, 162.03)
12 02/28/2024 16:21:25 ( 22.66, 139.65) 02/28/2024 16:21:35 ( 22.07, 139.51)
13 02/29/2024 03:30:30 ( 10.05, 147.18) 02/29/2024 03:34:05 ( 22.68, 144.17)
14 02/29/2024 16:02:23 ( 22.65, 144.41) 02/29/2024 16:05:58 ( 10.03, 141.41)
15 03/01/2024 03:11:27 ( 10.01, 151.95) 03/01/2024 03:15:03 ( 22.69, 148.93)
16 03/01/2024 15:43:19 ( 22.69, 149.18) 03/01/2024 15:46:55 ( 10.01, 146.17)
17 03/02/2024 02:52:24 ( 10.03, 156.71) 03/02/2024 02:55:59 ( 22.65, 153.70)
18 03/02/2024 15:24:17 ( 22.67, 153.94) 03/02/2024 15:27:52 ( 10.05, 150.94)
19 03/03/2024 02:33:22 ( 10.04, 161.46) 03/03/2024 02:36:57 ( 22.66, 158.46)
20 03/03/2024 15:05:14 ( 22.66, 158.70) 03/03/2024 15:08:49 ( 10.04, 155.70)
21 03/04/2024 02:15:05 ( 12.76, 165.60) 03/04/2024 02:17:54 ( 22.68, 163.22)
22 03/04/2024 03:55:48 ( 10.01, 140.86) 03/04/2024 03:57:27 ( 15.83, 139.51)
23 03/04/2024 14:46:11 ( 22.70, 163.47) 03/04/2024 14:49:47 ( 10.02, 160.45)
24 03/05/2024 03:36:46 ( 10.03, 145.61) 03/05/2024 03:40:21 ( 22.65, 142.61)
25 03/05/2024 14:30:17 ( 11.64, 165.59) 03/05/2024 14:30:44 ( 10.05, 165.22)
26 03/05/2024 16:08:39 ( 22.66, 142.85) 03/05/2024 16:12:14 ( 10.04, 139.85)
27 03/06/2024 03:17:43 ( 10.05, 150.37) 03/06/2024 03:21:18 ( 22.68, 147.37)
28 03/06/2024 15:49:36 ( 22.64, 147.61) 03/06/2024 15:53:11 ( 10.02, 144.61)
29 03/07/2024 02:58:40 ( 10.02, 155.14) 03/07/2024 03:02:16 ( 22.70, 152.12)
30 03/07/2024 15:30:33 ( 22.68, 152.38) 03/07/2024 15:34:08 ( 10.06, 149.38)
31 03/08/2024 02:39:37 ( 10.04, 159.90) 03/08/2024 02:43:12 ( 22.66, 156.90)
32 03/08/2024 15:11:30 ( 22.65, 157.13) 03/08/2024 15:15:05 ( 10.03, 154.13)
